Flag for Italy Weather past 2 weeks in Messina, Italy

Now
64 °F

Passing clouds.


Feels Like: 64 °F
Forecast: 64 / 70 °F
Wind: 6 mph from North

Location: Reggio Calabria

Current Time: May 25, 2015 at 11:58:21 PM

Latest Report: May 25, 2015 at 10:50 PM


Visibility: N/A

Pressure: 29.89 "Hg

Humidity: 64%

Dew point: 52 °F

Location of MessinaLocation

Historic Weather in Messina — Graph

°F

Messina temperature yesterday

Maximum temperature yesterday: 72 °F (at 11:50 AM)
Minimum temperature yesterday: 57 °F (at 5:55 AM)
Average temperature yesterday: 68 °F

Past Weeks' High & Low Weather Summary

 TemperatureHumidityPressure
High90 °F (May 15, 3:50 PM)88% (May 18, 8:50 PM)30.27 "Hg (May 18, 8:50 PM)
Low57 °F (May 24, 5:55 AM)14% (May 14, 12:50 PM)29.71 "Hg (May 17, 3:50 PM)
Average70 °F56%29.95 "Hg
* Reported May 10 9:50 PM — May 25 9:50 PM, Messina, Weather by CustomWeather, © 2015

Note: Actual official high and low records may vary slightly from our data, if they occured in-between our weather recording intervals... More about our weather records

Advertising

Messina weather history for previous 24 hours

 ConditionsComfort  
Time TempWeatherWind HumidityBarometerVisibility
9:50 PM
Mon, May 25
66 °FPassing clouds.8 mph64%29.89 "HgN/A
8:50 PM66 °FScattered clouds.10 mph68%29.89 "HgN/A
7:50 PM68 °FSunny.9 mph60%29.86 "Hg10 mi
6:50 PM70 °FPassing clouds.12 mph50%29.86 "HgN/A
5:50 PM72 °FSunny.12 mph50%29.89 "Hg10 mi
4:50 PM73 °FPassing clouds.13 mph44%29.92 "HgN/A
3:50 PM72 °FPassing clouds.14 mph53%29.92 "HgN/A
2:50 PM72 °FPassing clouds.15 mph50%29.92 "HgN/A
1:50 PM75 °FPassing clouds.16 mph44%29.95 "HgN/A
11:50 AM72 °FPassing clouds.17 mph53%29.95 "HgN/A
10:50 AM72 °FPassing clouds.13 mph50%29.95 "HgN/A
9:50 AM68 °FPassing clouds.10 mph56%29.95 "HgN/A
8:50 AM70 °FPassing clouds.5 mph57%29.98 "HgN/A
7:50 AM68 °FScattered clouds.5 mph60%29.98 "HgN/A
6:50 AM64 °FBroken clouds.6 mph64%29.95 "HgN/A
6:00 AM63 °FPartly cloudy.3 mph68%29.95 "HgN/A
11:50 PM
Sun, May 24
66 °FPassing clouds.9 mph64%29.95 "HgN/A
Weather by CustomWeather, © 2015

See weather overviewHow to use our weather pages